Regional Weather Roundup
Issued by NWS

Home | Current Version | Previous Version | Text Only | Print | Product List | Glossary Off
Versions: 1 2 3 4 5 6 7 8 9 10 11 12 13 14 15 16 17 18 19 20 21 22 23 24 25 26 27 28 29 30 31 32 33 34 35 36 37 38 39 40 41 42 43 44 45 46 47 48 49 50

038
ASUS43 KMPX 051910
RWRMN
WEATHER ROUNDUP FOR MINNESOTA
NATIONAL WEATHER SERVICE TWIN CITIES/CHANHASSEN MN
100 PM CST FRI FEB 05 2016


NOTE: "FAIR" INDICATES FEW OR NO CLOUDS BELOW 12,000 FEET WITH NO
SIGNIFICANT WEATHER AND/OR OBSTRUCTIONS TO VISIBILITY. N/A MEANS
CURRENT SKY AND/OR WEATHER CONDITIONS ARE NOT AVAILABLE.

MNZ060>063-068>070-052000-
   Twin Cities Metro

CITY           SKY/WX    TMP DP  RH WIND       PRES   REMARKS
TWIN CITIES    CLOUDY    25  16  68 SE8       30.27F WCI  16
ST PAUL        CLOUDY    22  14  71 SE8       30.30F WCI  12
CRYSTAL        CLOUDY    26  16  65 S12       30.26F WCI  16
BLAINE         CLOUDY    27  18  69 S7        30.25F WCI  19
LAKEVILLE      CLOUDY    23  18  80 S8        30.27F WCI  14
EDEN PRAIRIE   CLOUDY    26  16  65 SW12      30.26F WCI  16
SOUTH ST PAUL  CLOUDY    23  14  69 SE5       30.29F WCI  17
LAKE ELMO      FAIR      23  16  74 S8        30.29F WCI  14
$$
MNZ001>005-007-008-013>017-022>024-027-028-052000-
   Northwest Minnesota

CITY           SKY/WX    TMP DP  RH WIND       PRES   REMARKS
BEMIDJI        SUNNY     25  17  70 S7        30.09F WCI  17
HALLOCK        SUNNY     19  14  79 NW5       30.14S WCI  13
ROSEAU         SUNNY     21  14  73 SW7       30.11S WCI  13
WARROAD        SUNNY     23  16  74 SW5       30.11F WCI  17
THIEF RVR FALL SUNNY     21  18  86 W6        30.13S WCI  14
CROOKSTON      SUNNY     21  16  79 NW7       30.15S WCI  13
FOSSTON        CLOUDY    23  18  80 SW13      30.11F WCI  11
DETROIT LAKES  CLOUDY    27  23  86 SW7       30.12S WCI  19
MOORHEAD       MOSUNNY   25  21  86 S9        30.15F WCI  15
PARK RAPIDS    CLOUDY    26  20  77 SW8       30.10F WCI  18
MAHNOMEN       CLOUDY    25  21  87 SW10      30.11F WCI  14
$$
MNZ006-009>011-018-025>026-052000-
   North Central Minnesota

CITY           SKY/WX    TMP DP  RH WIND       PRES   REMARKS
BAUDETTE       MOSUNNY   22  12  65 W5        30.09F WCI  16
FLAG ISLAND    CLOUDY    16  10  79 SE5       30.09F WCI   9
INTL FALLS     CLOUDY    24  13  62 SW6       30.10F WCI  17
WASKISH        PTSUNNY   23  16  74 W6        30.10F WCI  16
LONGVILLE      MOSUNNY   27  16  63 SW12      30.12F WCI  16
GRAND RAPIDS   CLOUDY    25  12  58 S10       30.12F WCI  15
CRANE LAKE     PTSUNNY   19  10  68 SE6       30.14F WCI  11
ORR            CLOUDY    21   9  58 S9        30.08F WCI  11
COOK           CLOUDY    19  10  68 SE9       30.12F WCI   9
WALKER         CLOUDY    24  17  74 SW10      30.10F WCI  14
$$
MNZ012-019>021-037-052000-
   Northeast Minnesota

CITY           SKY/WX    TMP DP  RH WIND       PRES   REMARKS
DULUTH         MOSUNNY   22  11  62 S14       30.16F WCI   9
ELY            FLURRIES  18  10  73 S6        30.13F WCI   9
HIBBING        CLOUDY    22  12  65 S5        30.12F WCI  16
EVELETH        PTSUNNY   23  12  63 S8        30.14F WCI  14
DULUTH HARBOR  MOSUNNY   25  12  58 S14       30.24F WCI  13
TWO HARBORS    CLOUDY    23  12  63 S10       30.18F WCI  12
SILVER BAY     CLOUDY    23  12  63 S5        30.18F WCI  17
GRAND MARAIS     N/A     22  15  75 SW7       30.24F WCI  13
G MARAIS ARPRT CLOUDY    18   9  68 S8        30.15F WCI   7
$$
MNZ029>031-032-039>041-046>048-054>057-064-052000-
   West Central Minnesota

CITY           SKY/WX    TMP DP  RH WIND       PRES   REMARKS
FERGUS FALLS   SUNNY     27  19  74 S9        30.17F WCI  17
WHEATON        MIX PCPN  28  25  86 CALM      30.17F
MORRIS         LGT SNOW  27  19  74 S8        30.15F WCI  18
ALEXANDRIA     CLOUDY    24  14  65 S10       30.15F WCI  14
ELBOW LAKE     CLOUDY    23  17  79 S8        30.16F WCI  14
WADENA         MIX PCPN  25  18  74 S9        30.13F WCI  15
GLENWOOD       CLOUDY    25  16  68 S12       30.16S WCI  14
APPLETON       CLOUDY    28  18  64 SW10      30.16F WCI  19
BENSON         CLOUDY    27  18  69 CALM      30.16F
ORTONVILLE     CLOUDY    28  19  69 W7        30.15S WCI  21
MADISON        CLOUDY    28  19  69 SW7       30.16S WCI  21
WILLMAR        FAIR      27  18  69 S6        30.19F WCI  20
$$
MNZ033>034-036-042>043-049>051-058-059-052000-
   Central Minnesota

CITY           SKY/WX    TMP DP  RH WIND       PRES   REMARKS
ST CLOUD       CLOUDY    24  15  68 S12       30.20F WCI  13
SAUK CENTRE    FAIR      25  15  65 S13       30.17F WCI  14
PAYNESVILLE    CLOUDY    25  15  66 S7        30.19F WCI  17
AITKIN         SUNNY     27  12  54 S8        30.15F WCI  18
PINE RIVER     CLOUDY    25  18  74 SW13      30.16F WCI  13
BRAINERD       CLOUDY    23  13  65 SW15      30.17F WCI  10
STAPLES        CLOUDY    25  16  68 SW13      30.15F WCI  13
LONG PRAIRIE   CLOUDY    27  14  59 S13       30.16F WCI  16
LITTLE FALLS   CLOUDY    27  14  59 S6        30.19F WCI  20
LITCHFIELD     CLOUDY    25  18  74 S3        30.21F
BUFFALO        CLOUDY    24  16  70 S9        30.24F WCI  14
MAPLE LAKE     CLOUDY    26  18  70 S7        30.23F WCI  19
$$
MNZ037-044-045-052-053-052000-
   East Central Minnesota

CITY           SKY/WX    TMP DP  RH WIND       PRES   REMARKS
PRINCETON      MOSUNNY   27  18  69 S7        30.22F WCI  19
MORA           CLOUDY    21  14  73 S5        30.24F WCI  15
CAMBRIDGE      CLOUDY    27  16  63 S10       30.22F WCI  17
RUSH CITY      CLOUDY    21  13  71 S8        30.25F WCI  11
MOOSE LAKE     CLOUDY    23  12  63 S13       30.19F WCI  11
HINCKLEY       CLOUDY    21  14  73 S12       30.24F WCI   9
CLOQUET        CLOUDY    23  10  58 S8        30.17F WCI  14
MCGREGOR       PTSUNNY   27  16  63 S13       30.16F WCI  16
$$
MNZ071>073-080-081-089-090-097-098-052000-
   Southwest Minnesota

CITY           SKY/WX    TMP DP  RH WIND       PRES   REMARKS
MONTEVIDEO     CLOUDY    28  18  64 SW12      30.18F WCI  18
GRANITE FALLS  CLOUDY    29  22  74 S14       30.20F WCI  18
CANBY          CLOUDY    30  22  72 SW14      30.16F WCI  19
MARSHALL       CLOUDY    26  20  77 SW15G24   30.16F WCI  14
REDWOOD FALLS  CLOUDY    26  17  68 S9        30.20F WCI  17
OLIVIA         CLOUDY    27  18  69 S10       30.19F WCI  17
PIPESTONE        N/A     27  18  69 SW15      30.14F WCI  15
WINDOM         CLOUDY    25  16  68 S14G23    30.19F WCI  13
WORTHINGTON    CLOUDY    25  18  74 S21G29    30.19F WCI  10
JACKSON        CLOUDY    27  14  59 S18       30.22F WCI  13
TRACY          CLOUDY    27  22  79 S20G26    30.16F WCI  14
SLAYTON        CLOUDY    24  22  91 S15G23    30.16F WCI  12
$$
MNZ065>067-074>077-082>085-091>093-052000-
   South Central Minnesota

CITY           SKY/WX    TMP DP  RH WIND       PRES   REMARKS
MANKATO        CLOUDY    21  16  79 S13       30.27F WCI   9
NEW ULM        CLOUDY    23  16  74 S15G21    30.23F WCI  10
ST JAMES       CLOUDY    25  18  74 S14       30.25F WCI  13
FAIRMONT       CLOUDY    21  16  79 S17       30.24F WCI   7
GLENCOE        CLOUDY    25  20  81 S8        30.24F WCI  16
FARIBAULT      CLOUDY    25  18  74 S12       30.27F WCI  14
OWATONNA       MOSUNNY   23  16  74 S10       30.27F WCI  12
WASECA         CLOUDY    23  18  80 S14       30.28F WCI  11
ALBERT LEA     CLOUDY    23  16  74 S8        30.28F WCI  14
$$
MNZ078>079-086>088-094>096-052000-
   Southeast Minnesota

CITY           SKY/WX    TMP DP  RH WIND       PRES   REMARKS
ROCHESTER      CLOUDY    20  15  81 S10       30.29F WCI   9
RED WING       MOSUNNY   21  12  68 SE7       30.31F WCI  13
STANTON        CLOUDY    24  16  70 S9        30.27F WCI  15
DODGE CENTER   CLOUDY    21  16  79 S10       30.28F WCI  10
WINONA         CLOUDY    27  14  59 SW5       30.35F WCI  21
AUSTIN         CLOUDY    19  16  86 S12       30.29F WCI   7
PRESTON        CLOUDY    22  14  72 S7        30.31F WCI  13
$$
ABBREVIATIONS USED IN REMARKS
   TC - TEMPERATURES IN CELSIUS
  WCI - WIND CHILL INDEX
   HX - HEAT INDEX
  VSB - VISIBILITY
$$




USA.gov is the U.S. government's official web portal to all federal, state and local government web resources and services.